Time,TemperatureF,DewpointF,PressureIn,WindDirection,WindDirectionDegrees,WindSpeedMPH,WindSpeedGustMPH,Humidity,HourlyPrecipIn,Conditions,Clouds,dailyrainin,SolarRadiationWatts/m^2,SoftwareType,DateUTC
2013-11-03 00:02:00,71.6,34.9,-100.00,NNW,339,5.0,-999.0,26,-99.99,,,-99.99,0.0,meteohub,2013-11-03 04:02:00,
2013-11-03 00:07:00,71.4,34.7,-100.00,NW,325,9.0,-999.0,26,-99.99,,,-99.99,0.0,meteohub,2013-11-03 04:07:00,
2013-11-03 00:12:00,71.2,33.6,-100.00,NW,326,12.0,-999.0,25,-99.99,,,-99.99,0.0,meteohub,2013-11-03 04:12:00,
2013-11-03 00:17:00,71.1,32.4,-100.00,NNW,341,7.0,-999.0,24,-99.99,,,-99.99,0.0,meteohub,2013-11-03 04:17:00,
2013-11-03 00:22:00,70.9,31.3,-100.00,NNW,336,8.0,-999.0,23,-99.99,,,-99.99,0.0,meteohub,2013-11-03 04:22:00,
2013-11-03 00:27:00,70.9,28.9,-100.00,NNW,348,11.0,-999.0,21,-99.99,,,-99.99,0.0,meteohub,2013-11-03 04:27:00,
2013-11-03 00:32:00,71.1,26.8,-100.00,North,355,4.0,-999.0,19,-99.99,,,-99.99,0.0,meteohub,2013-11-03 04:32:00,
2013-11-03 00:37:00,71.1,25.3,-100.00,NNW,346,8.0,-999.0,18,-99.99,,,-99.99,0.0,meteohub,2013-11-03 04:37:00,
2013-11-03 00:42:00,71.2,25.5,-100.00,NNW,342,1.0,-999.0,18,-99.99,,,-99.99,0.0,meteohub,2013-11-03 04:42:00,
2013-11-03 00:47:00,71.2,24.3,-100.00,NNW,344,7.0,-999.0,17,-99.99,,,-99.99,0.0,meteohub,2013-11-03 04:47:00,
2013-11-03 00:52:00,71.2,24.3,-100.00,NNW,345,7.0,-999.0,17,-99.99,,,-99.99,0.0,meteohub,2013-11-03 04:52:00,
2013-11-03 00:57:00,71.2,24.3,-100.00,NNW,339,4.0,-999.0,17,-99.99,,,-99.99,0.0,meteohub,2013-11-03 04:57:00,
2013-11-03 01:02:00,71.2,22.8,-100.00,NNW,346,4.0,-999.0,16,-99.99,,,-99.99,0.0,meteohub,2013-11-03 05:02:00,
2013-11-03 01:07:00,71.2,22.8,-100.00,North,349,0.0,-999.0,16,-99.99,,,-99.99,0.0,meteohub,2013-11-03 05:07:00,
2013-11-03 01:12:00,71.2,22.8,-100.00,North,355,2.0,-999.0,16,-99.99,,,-99.99,0.0,meteohub,2013-11-03 05:12:00,
2013-11-03 01:17:00,71.4,22.8,-100.00,North,355,4.0,-999.0,16,-99.99,,,-99.99,0.0,meteohub,2013-11-03 05:17:00,
2013-11-03 01:22:00,71.4,22.8,-100.00,NNW,335,3.0,-999.0,16,-99.99,,,-99.99,0.0,meteohub,2013-11-03 05:22:00,
2013-11-03 01:27:00,71.4,22.8,-100.00,NNW,333,6.0,-999.0,16,-99.99,,,-99.99,0.0,meteohub,2013-11-03 05:27:00,
2013-11-03 01:32:00,71.2,22.8,-100.00,NNW,338,5.0,-999.0,16,-99.99,,,-99.99,0.0,meteohub,2013-11-03 05:32:00,
2013-11-03 01:37:00,71.1,22.6,-100.00,NNW,330,7.0,-999.0,16,-99.99,,,-99.99,0.0,meteohub,2013-11-03 05:37:00,
2013-11-03 01:42:00,71.2,22.8,-100.00,NNW,346,6.0,-999.0,16,-99.99,,,-99.99,0.0,meteohub,2013-11-03 05:42:00,
2013-11-03 01:47:00,71.1,22.6,-100.00,NNW,342,7.0,-999.0,16,-99.99,,,-99.99,0.0,meteohub,2013-11-03 05:47:00,
2013-11-03 01:52:00,71.2,22.8,-100.00,NNW,347,9.0,-999.0,16,-99.99,,,-99.99,0.0,meteohub,2013-11-03 05:52:00,
2013-11-03 01:57:00,71.2,22.8,-100.00,NNW,342,3.0,-999.0,16,-99.99,,,-99.99,0.0,meteohub,2013-11-03 05:57:00,
2013-11-03 01:02:00,71.2,22.8,-100.00,NNW,345,4.0,-999.0,16,-99.99,,,-99.99,0.0,meteohub,2013-11-03 06:02:00,
2013-11-03 01:07:00,71.2,22.8,-100.00,North,349,5.0,-999.0,16,-99.99,,,-99.99,0.0,meteohub,2013-11-03 06:07:00,
2013-11-03 01:12:00,71.2,22.8,-100.00,NNW,342,8.0,-999.0,16,-99.99,,,-99.99,0.0,meteohub,2013-11-03 06:12:00,
2013-11-03 01:17:00,71.2,22.8,-100.00,NNW,344,11.0,-999.0,16,-99.99,,,-99.99,0.0,meteohub,2013-11-03 06:17:00,
2013-11-03 01:22:00,71.2,22.8,-100.00,NNW,344,5.0,-999.0,16,-99.99,,,-99.99,0.0,meteohub,2013-11-03 06:22:00,
2013-11-03 01:27:00,71.2,22.8,-100.00,NNW,336,6.0,-999.0,16,-99.99,,,-99.99,0.0,meteohub,2013-11-03 06:27:00,
2013-11-03 01:32:00,71.2,22.8,-100.00,NNW,334,6.0,-999.0,16,-99.99,,,-99.99,0.0,meteohub,2013-11-03 06:32:00,
2013-11-03 01:37:00,71.2,22.8,-100.00,NNW,342,6.0,-999.0,16,-99.99,,,-99.99,0.0,meteohub,2013-11-03 06:37:00,
2013-11-03 01:42:00,71.1,22.6,-100.00,North,0,10.0,-999.0,16,-99.99,,,-99.99,0.0,meteohub,2013-11-03 06:42:00,
2013-11-03 01:47:00,71.1,22.6,-100.00,NNW,331,6.0,-999.0,16,-99.99,,,-99.99,0.0,meteohub,2013-11-03 06:47:00,
2013-11-03 01:52:00,71.1,22.6,-100.00,NNW,337,7.0,-999.0,16,-99.99,,,-99.99,0.0,meteohub,2013-11-03 06:52:00,
2013-11-03 01:57:00,70.9,22.5,-100.00,North,11,6.0,-999.0,16,-99.99,,,-99.99,0.0,meteohub,2013-11-03 06:57:00,
2013-11-03 02:02:00,70.9,22.5,-100.00,NNW,348,2.0,-999.0,16,-99.99,,,-99.99,0.0,meteohub,2013-11-03 07:02:00,
2013-11-03 02:07:00,71.1,22.6,-100.00,North,351,3.0,-999.0,16,-99.99,,,-99.99,0.0,meteohub,2013-11-03 07:07:00,
2013-11-03 02:12:00,71.1,22.6,-100.00,NNW,345,5.0,-999.0,16,-99.99,,,-99.99,0.0,meteohub,2013-11-03 07:12:00,
2013-11-03 02:17:00,71.2,22.8,-100.00,NNW,341,4.0,-999.0,16,-99.99,,,-99.99,0.0,meteohub,2013-11-03 07:17:00,
2013-11-03 02:22:00,71.2,24.3,-100.00,NNW,340,4.0,-999.0,17,-99.99,,,-99.99,0.0,meteohub,2013-11-03 07:22:00,
2013-11-03 02:27:00,71.2,24.3,-100.00,NNW,337,6.0,-999.0,17,-99.99,,,-99.99,0.0,meteohub,2013-11-03 07:27:00,
2013-11-03 02:32:00,71.2,24.3,-100.00,NW,326,6.0,-999.0,17,-99.99,,,-99.99,0.0,meteohub,2013-11-03 07:32:00,
2013-11-03 02:37:00,71.1,24.1,-100.00,NNW,340,6.0,-999.0,17,-99.99,,,-99.99,0.0,meteohub,2013-11-03 07:37:00,
2013-11-03 02:42:00,71.1,22.6,-100.00,NNW,345,6.0,-999.0,16,-99.99,,,-99.99,0.0,meteohub,2013-11-03 07:42:00,
2013-11-03 02:47:00,71.1,22.6,-100.00,North,355,4.0,-999.0,16,-99.99,,,-99.99,0.0,meteohub,2013-11-03 07:47:00,
2013-11-03 02:52:00,71.1,22.6,-100.00,NNW,334,8.0,-999.0,16,-99.99,,,-99.99,0.0,meteohub,2013-11-03 07:52:00,
2013-11-03 02:57:00,70.9,22.5,-100.00,NNW,333,6.0,-999.0,16,-99.99,,,-99.99,0.0,meteohub,2013-11-03 07:57:00,
2013-11-03 03:02:00,70.5,22.1,-100.00,NNW,340,5.0,-999.0,16,-99.99,,,-99.99,0.0,meteohub,2013-11-03 08:02:00,
2013-11-03 03:07:00,70.5,22.1,-100.00,NNW,334,3.0,-999.0,16,-99.99,,,-99.99,0.0,meteohub,2013-11-03 08:07:00,
2013-11-03 03:12:00,70.3,22.1,-100.00,NNW,340,6.0,-999.0,16,-99.99,,,-99.99,0.0,meteohub,2013-11-03 08:12:00,
2013-11-03 03:17:00,70.3,22.1,-100.00,NNW,338,3.0,-999.0,16,-99.99,,,-99.99,0.0,meteohub,2013-11-03 08:17:00,
2013-11-03 03:27:00,70.5,22.1,-100.00,North,5,7.0,-999.0,16,-99.99,,,-99.99,0.0,meteohub,2013-11-03 08:27:00,
2013-11-03 03:32:00,70.5,22.1,-100.00,NW,323,4.0,-999.0,16,-99.99,,,-99.99,0.0,meteohub,2013-11-03 08:32:00,
2013-11-03 03:37:00,70.5,22.1,-100.00,NW,319,3.0,-999.0,16,-99.99,,,-99.99,0.0,meteohub,2013-11-03 08:37:00,
2013-11-03 03:42:00,70.5,22.1,-100.00,NNW,347,6.0,-999.0,16,-99.99,,,-99.99,0.0,meteohub,2013-11-03 08:42:00,
2013-11-03 03:47:00,70.3,22.1,-100.00,NNW,346,9.0,-999.0,16,-99.99,,,-99.99,0.0,meteohub,2013-11-03 08:47:00,
2013-11-03 03:52:00,70.3,22.1,-100.00,North,355,7.0,-999.0,16,-99.99,,,-99.99,0.0,meteohub,2013-11-03 08:52:00,
2013-11-03 03:57:00,70.3,22.1,-100.00,North,355,11.0,-999.0,16,-99.99,,,-99.99,0.0,meteohub,2013-11-03 08:57:00,
2013-11-03 04:02:00,70.0,21.7,-100.00,NNW,346,6.0,-999.0,16,-99.99,,,-99.99,0.0,meteohub,2013-11-03 09:02:00,
2013-11-03 04:07:00,70.0,21.7,-100.00,NNW,330,6.0,-999.0,16,-99.99,,,-99.99,0.0,meteohub,2013-11-03 09:07:00,
2013-11-03 04:12:00,70.0,21.7,-100.00,North,350,7.0,-999.0,16,-99.99,,,-99.99,0.0,meteohub,2013-11-03 09:12:00,
2013-11-03 04:17:00,69.8,21.6,-100.00,NNW,332,6.0,-999.0,16,-99.99,,,-99.99,0.0,meteohub,2013-11-03 09:17:00,
2013-11-03 04:22:00,69.6,22.8,-100.00,NNW,342,10.0,-999.0,17,-99.99,,,-99.99,0.0,meteohub,2013-11-03 09:22:00,
2013-11-03 04:27:00,69.6,22.8,-100.00,North,355,4.0,-999.0,17,-99.99,,,-99.99,0.0,meteohub,2013-11-03 09:27:00,
2013-11-03 04:32:00,69.6,22.8,-100.00,NW,321,7.0,-999.0,17,-99.99,,,-99.99,0.0,meteohub,2013-11-03 09:32:00,
2013-11-03 04:37:00,69.4,22.6,-100.00,NNW,344,6.0,-999.0,17,-99.99,,,-99.99,0.0,meteohub,2013-11-03 09:37:00,
2013-11-03 04:42:00,69.3,22.6,-100.00,NNW,341,5.0,-999.0,17,-99.99,,,-99.99,0.0,meteohub,2013-11-03 09:42:00,
2013-11-03 04:47:00,69.1,23.7,-100.00,NW,315,6.0,-999.0,18,-99.99,,,-99.99,0.0,meteohub,2013-11-03 09:47:00,
2013-11-03 04:57:00,69.1,23.7,-100.00,NNW,346,3.0,-999.0,18,-99.99,,,-99.99,0.0,meteohub,2013-11-03 09:57:00,
2013-11-03 05:02:00,68.9,25.0,-100.00,NNW,331,5.0,-999.0,19,-99.99,,,-99.99,0.0,meteohub,2013-11-03 10:02:00,
2013-11-03 05:07:00,68.9,25.0,-100.00,NNW,338,1.0,-999.0,19,-99.99,,,-99.99,0.0,meteohub,2013-11-03 10:07:00,
2013-11-03 05:12:00,68.7,24.8,-100.00,North,355,4.0,-999.0,19,-99.99,,,-99.99,0.0,meteohub,2013-11-03 10:12:00,
2013-11-03 05:17:00,68.7,26.1,-100.00,NNW,344,5.0,-999.0,20,-99.99,,,-99.99,0.0,meteohub,2013-11-03 10:17:00,
2013-11-03 05:22:00,68.7,26.1,-100.00,NNW,345,5.0,-999.0,20,-99.99,,,-99.99,0.0,meteohub,2013-11-03 10:22:00,
2013-11-03 05:27:00,68.5,27.1,-100.00,NW,311,4.0,-999.0,21,-99.99,,,-99.99,0.0,meteohub,2013-11-03 10:27:00,
2013-11-03 05:32:00,68.5,27.1,-100.00,NNW,341,4.0,-999.0,21,-99.99,,,-99.99,0.0,meteohub,2013-11-03 10:32:00,
2013-11-03 05:37:00,68.5,27.1,-100.00,NNW,337,7.0,-999.0,21,-99.99,,,-99.99,0.0,meteohub,2013-11-03 10:37:00,
2013-11-03 05:42:00,68.5,27.1,-100.00,NNW,344,6.0,-999.0,21,-99.99,,,-99.99,0.0,meteohub,2013-11-03 10:42:00,
2013-11-03 05:47:00,68.5,28.2,-100.00,NW,326,6.0,-999.0,22,-99.99,,,-99.99,0.0,meteohub,2013-11-03 10:47:00,
2013-11-03 05:52:00,68.5,28.2,-100.00,North,355,3.0,-999.0,22,-99.99,,,-99.99,0.0,meteohub,2013-11-03 10:52:00,
2013-11-03 05:57:00,68.5,29.3,-100.00,North,5,9.0,-999.0,23,-99.99,,,-99.99,0.0,meteohub,2013-11-03 10:57:00,
2013-11-03 06:02:00,68.5,29.3,-100.00,NNW,334,3.0,-999.0,23,-99.99,,,-99.99,0.0,meteohub,2013-11-03 11:02:00,
2013-11-03 06:07:00,68.5,30.4,-100.00,NNW,335,8.0,-999.0,24,-99.99,,,-99.99,0.0,meteohub,2013-11-03 11:07:00,
2013-11-03 06:12:00,68.5,30.4,-100.00,North,355,5.0,-999.0,24,-99.99,,,-99.99,0.0,meteohub,2013-11-03 11:12:00,
2013-11-03 06:17:00,68.5,31.3,-100.00,NNW,344,9.0,-999.0,25,-99.99,,,-99.99,0.0,meteohub,2013-11-03 11:17:00,
2013-11-03 06:22:00,68.5,31.3,-100.00,NNW,327,5.0,-999.0,25,-99.99,,,-99.99,0.0,meteohub,2013-11-03 11:22:00,
2013-11-03 06:27:00,68.5,31.3,-100.00,NNW,343,6.0,-999.0,25,-99.99,,,-99.99,0.0,meteohub,2013-11-03 11:27:00,
2013-11-03 06:32:00,68.5,31.3,-100.00,NNW,334,6.0,-999.0,25,-99.99,,,-99.99,0.0,meteohub,2013-11-03 11:32:00,
2013-11-03 06:37:00,68.5,32.4,-100.00,NNW,342,7.0,-999.0,26,-99.99,,,-99.99,0.0,meteohub,2013-11-03 11:37:00,
2013-11-03 06:42:00,68.5,32.4,-100.00,NNW,337,2.0,-999.0,26,-99.99,,,-99.99,5.0,meteohub,2013-11-03 11:42:00,
2013-11-03 06:47:00,68.7,32.4,-100.00,NNW,348,0.0,-999.0,26,-99.99,,,-99.99,9.0,meteohub,2013-11-03 11:47:00,
2013-11-03 06:52:00,68.7,32.4,-100.00,NNW,342,4.0,-999.0,26,-99.99,,,-99.99,12.0,meteohub,2013-11-03 11:52:00,
2013-11-03 06:57:00,68.7,32.4,-100.00,NNW,331,6.0,-999.0,26,-99.99,,,-99.99,25.0,meteohub,2013-11-03 11:57:00,
2013-11-03 07:02:00,68.9,33.6,-100.00,North,0,9.0,-999.0,27,-99.99,,,-99.99,23.0,meteohub,2013-11-03 12:02:00,
2013-11-03 07:07:00,69.1,33.6,-100.00,NNW,329,9.0,-999.0,27,-99.99,,,-99.99,28.0,meteohub,2013-11-03 12:07:00,
2013-11-03 07:12:00,69.1,33.6,-100.00,North,349,3.0,-999.0,27,-99.99,,,-99.99,35.0,meteohub,2013-11-03 12:12:00,
2013-11-03 07:17:00,69.3,33.8,-100.00,North,350,6.0,-999.0,27,-99.99,,,-99.99,53.0,meteohub,2013-11-03 12:17:00,
2013-11-03 07:22:00,69.3,34.7,-100.00,North,350,10.0,-999.0,28,-99.99,,,-99.99,69.0,meteohub,2013-11-03 12:22:00,
2013-11-03 07:27:00,69.4,35.8,-100.00,North,5,6.0,-999.0,29,-99.99,,,-99.99,76.0,meteohub,2013-11-03 12:27:00,
2013-11-03 07:32:00,69.3,36.5,-100.00,NNW,342,7.0,-999.0,30,-99.99,,,-99.99,84.0,meteohub,2013-11-03 12:32:00,
2013-11-03 07:37:00,69.4,37.4,-100.00,NNW,344,6.0,-999.0,31,-99.99,,,-99.99,104.0,meteohub,2013-11-03 12:37:00,
2013-11-03 07:42:00,69.4,37.4,-100.00,NNW,330,6.0,-999.0,31,-99.99,,,-99.99,83.0,meteohub,2013-11-03 12:42:00,
2013-11-03 07:47:00,69.4,38.3,-100.00,North,0,7.0,-999.0,32,-99.99,,,-99.99,139.0,meteohub,2013-11-03 12:47:00,
2013-11-03 07:52:00,69.4,39.0,-100.00,NNW,338,8.0,-999.0,33,-99.99,,,-99.99,237.0,meteohub,2013-11-03 12:52:00,
2013-11-03 07:57:00,70.0,41.0,-100.00,North,0,4.0,-999.0,35,-99.99,,,-99.99,255.0,meteohub,2013-11-03 12:57:00,
2013-11-03 08:02:00,70.2,42.6,-100.00,North,9,9.0,-999.0,37,-99.99,,,-99.99,267.0,meteohub,2013-11-03 13:02:00,
2013-11-03 08:07:00,70.3,43.5,-100.00,NNW,338,9.0,-999.0,38,-99.99,,,-99.99,287.0,meteohub,2013-11-03 13:07:00,
2013-11-03 08:12:00,70.3,45.0,-100.00,North,355,11.0,-999.0,40,-99.99,,,-99.99,306.0,meteohub,2013-11-03 13:12:00,
2013-11-03 08:17:00,70.5,45.0,-100.00,North,351,8.0,-999.0,40,-99.99,,,-99.99,322.0,meteohub,2013-11-03 13:17:00,
2013-11-03 08:22:00,70.9,46.0,-100.00,NNW,333,6.0,-999.0,41,-99.99,,,-99.99,339.0,meteohub,2013-11-03 13:22:00,
2013-11-03 08:27:00,71.1,46.2,-100.00,North,0,7.0,-999.0,41,-99.99,,,-99.99,355.0,meteohub,2013-11-03 13:27:00,
2013-11-03 08:32:00,71.2,47.7,-100.00,North,350,7.0,-999.0,43,-99.99,,,-99.99,374.0,meteohub,2013-11-03 13:32:00,
2013-11-03 08:37:00,71.8,48.0,-100.00,North,351,9.0,-999.0,43,-99.99,,,-99.99,390.0,meteohub,2013-11-03 13:37:00,
2013-11-03 08:42:00,71.8,49.3,-100.00,NNW,346,14.0,-999.0,45,-99.99,,,-99.99,404.0,meteohub,2013-11-03 13:42:00,
2013-11-03 08:47:00,72.1,48.4,-100.00,North,355,12.0,-999.0,43,-99.99,,,-99.99,418.0,meteohub,2013-11-03 13:47:00,
2013-11-03 08:52:00,72.3,49.1,-100.00,North,355,9.0,-999.0,44,-99.99,,,-99.99,434.0,meteohub,2013-11-03 13:52:00,
2013-11-03 08:57:00,72.9,49.6,-100.00,NNW,346,9.0,-999.0,44,-99.99,,,-99.99,457.0,meteohub,2013-11-03 13:57:00,
2013-11-03 09:02:00,73.4,50.7,-100.00,North,349,8.0,-999.0,45,-99.99,,,-99.99,473.0,meteohub,2013-11-03 14:02:00,
2013-11-03 09:07:00,73.8,51.1,-100.00,North,5,9.0,-999.0,45,-99.99,,,-99.99,490.0,meteohub,2013-11-03 14:07:00,
2013-11-03 09:12:00,73.9,51.8,-100.00,NNW,331,11.0,-999.0,46,-99.99,,,-99.99,499.0,meteohub,2013-11-03 14:12:00,
2013-11-03 09:17:00,74.3,52.7,-100.00,North,9,10.0,-999.0,47,-99.99,,,-99.99,512.0,meteohub,2013-11-03 14:17:00,
2013-11-03 09:22:00,74.5,53.4,-100.00,North,0,6.0,-999.0,48,-99.99,,,-99.99,529.0,meteohub,2013-11-03 14:22:00,
2013-11-03 09:27:00,74.8,53.8,-100.00,North,350,9.0,-999.0,48,-99.99,,,-99.99,545.0,meteohub,2013-11-03 14:27:00,
2013-11-03 09:32:00,75.6,55.0,-100.00,NNE,30,17.0,-999.0,49,-99.99,,,-99.99,557.0,meteohub,2013-11-03 14:32:00,
2013-11-03 09:37:00,75.9,55.9,-100.00,North,5,9.0,-999.0,50,-99.99,,,-99.99,396.0,meteohub,2013-11-03 14:37:00,
2013-11-03 09:42:00,76.3,56.3,-100.00,NNW,345,11.0,-999.0,50,-99.99,,,-99.99,591.0,meteohub,2013-11-03 14:42:00,
2013-11-03 09:47:00,77.0,57.0,-100.00,NNW,342,8.0,-999.0,50,-99.99,,,-99.99,601.0,meteohub,2013-11-03 14:47:00,
2013-11-03 09:52:00,77.5,57.9,-100.00,North,0,5.0,-999.0,51,-99.99,,,-99.99,202.0,meteohub,2013-11-03 14:52:00,
2013-11-03 09:57:00,77.5,57.9,-100.00,NW,326,9.0,-999.0,51,-99.99,,,-99.99,214.0,meteohub,2013-11-03 14:57:00,
2013-11-03 10:02:00,77.4,57.2,-100.00,NNW,346,13.0,-999.0,50,-99.99,,,-99.99,294.0,meteohub,2013-11-03 15:02:00,
2013-11-03 10:07:00,77.9,58.8,-100.00,NNW,340,10.0,-999.0,52,-99.99,,,-99.99,315.0,meteohub,2013-11-03 15:07:00,
2013-11-03 10:12:00,78.1,58.5,-100.00,North,350,13.0,-999.0,51,-99.99,,,-99.99,241.0,meteohub,2013-11-03 15:12:00,
2013-11-03 10:17:00,77.7,58.1,-100.00,NNW,342,10.0,-999.0,51,-99.99,,,-99.99,244.0,meteohub,2013-11-03 15:17:00,
2013-11-03 10:22:00,77.5,57.4,-100.00,NNW,340,10.0,-999.0,50,-99.99,,,-99.99,264.0,meteohub,2013-11-03 15:22:00,
2013-11-03 10:27:00,77.9,58.8,-100.00,NW,316,10.0,-999.0,52,-99.99,,,-99.99,290.0,meteohub,2013-11-03 15:27:00,
2013-11-03 10:32:00,78.1,59.0,-100.00,NNW,340,10.0,-999.0,52,-99.99,,,-99.99,418.0,meteohub,2013-11-03 15:32:00,
2013-11-03 10:37:00,78.4,59.9,-100.00,NW,324,9.0,-999.0,53,-99.99,,,-99.99,265.0,meteohub,2013-11-03 15:37:00,
2013-11-03 10:42:00,78.4,59.4,-100.00,NNW,345,10.0,-999.0,52,-99.99,,,-99.99,793.0,meteohub,2013-11-03 15:42:00,
2013-11-03 10:47:00,79.2,60.6,-100.00,NNW,334,14.0,-999.0,53,-99.99,,,-99.99,654.0,meteohub,2013-11-03 15:47:00,
2013-11-03 10:52:00,79.5,61.3,-100.00,NNW,334,10.0,-999.0,54,-99.99,,,-99.99,654.0,meteohub,2013-11-03 15:52:00,
2013-11-03 10:57:00,79.5,61.9,-100.00,North,0,15.0,-999.0,55,-99.99,,,-99.99,332.0,meteohub,2013-11-03 15:57:00,
2013-11-03 11:02:00,79.0,60.4,-100.00,North,0,7.0,-999.0,53,-99.99,,,-99.99,886.0,meteohub,2013-11-03 16:02:00,
2013-11-03 11:07:00,79.3,61.7,-100.00,NNW,337,14.0,-999.0,55,-99.99,,,-99.99,795.0,meteohub,2013-11-03 16:07:00,
2013-11-03 11:12:00,79.7,61.5,-100.00,NNE,24,15.0,-999.0,54,-99.99,,,-99.99,772.0,meteohub,2013-11-03 16:12:00,
2013-11-03 11:17:00,79.9,62.2,-100.00,NNW,347,7.0,-999.0,55,-99.99,,,-99.99,381.0,meteohub,2013-11-03 16:17:00,
2013-11-03 11:22:00,80.1,62.4,-100.00,NNW,343,12.0,-999.0,55,-99.99,,,-99.99,392.0,meteohub,2013-11-03 16:22:00,
2013-11-03 11:27:00,80.4,62.8,-100.00,North,355,9.0,-999.0,55,-99.99,,,-99.99,1025.0,meteohub,2013-11-03 16:27:00,
2013-11-03 11:32:00,80.6,63.0,-100.00,NNW,348,13.0,-999.0,55,-99.99,,,-99.99,373.0,meteohub,2013-11-03 16:32:00,
2013-11-03 11:37:00,80.2,63.1,-100.00,NNW,337,10.0,-999.0,56,-99.99,,,-99.99,380.0,meteohub,2013-11-03 16:37:00,
2013-11-03 11:42:00,81.0,63.9,-100.00,NNW,340,11.0,-999.0,56,-99.99,,,-99.99,918.0,meteohub,2013-11-03 16:42:00,
2013-11-03 11:47:00,81.1,64.0,-100.00,NW,307,9.0,-999.0,56,-99.99,,,-99.99,374.0,meteohub,2013-11-03 16:47:00,
2013-11-03 11:52:00,81.0,63.9,-100.00,NNW,348,12.0,-999.0,56,-99.99,,,-99.99,348.0,meteohub,2013-11-03 16:52:00,
2013-11-03 11:57:00,81.3,64.0,-100.00,North,10,13.0,-999.0,56,-99.99,,,-99.99,1049.0,meteohub,2013-11-03 16:57:00,
2013-11-03 12:02:00,81.5,64.2,-100.00,NW,321,11.0,-999.0,56,-99.99,,,-99.99,1060.0,meteohub,2013-11-03 17:02:00,
2013-11-03 12:07:00,80.2,63.1,-100.00,NW,319,9.0,-999.0,56,-99.99,,,-99.99,253.0,meteohub,2013-11-03 17:07:00,
2013-11-03 12:12:00,80.2,62.6,-100.00,North,355,11.0,-999.0,55,-99.99,,,-99.99,898.0,meteohub,2013-11-03 17:12:00,
2013-11-03 12:17:00,81.3,64.0,-100.00,North,0,6.0,-999.0,56,-99.99,,,-99.99,364.0,meteohub,2013-11-03 17:17:00,
2013-11-03 12:22:00,81.5,64.2,-100.00,NNW,339,13.0,-999.0,56,-99.99,,,-99.99,946.0,meteohub,2013-11-03 17:22:00,
2013-11-03 12:27:00,81.1,64.0,-100.00,North,5,9.0,-999.0,56,-99.99,,,-99.99,237.0,meteohub,2013-11-03 17:27:00,
2013-11-03 12:32:00,80.2,63.1,-100.00,North,355,13.0,-999.0,56,-99.99,,,-99.99,262.0,meteohub,2013-11-03 17:32:00,
2013-11-03 12:37:00,80.8,63.7,-100.00,NNW,338,10.0,-999.0,56,-99.99,,,-99.99,311.0,meteohub,2013-11-03 17:37:00,
2013-11-03 12:42:00,80.1,63.5,-100.00,NNW,329,12.0,-999.0,57,-99.99,,,-99.99,279.0,meteohub,2013-11-03 17:42:00,
2013-11-03 12:47:00,79.3,62.2,-100.00,NNW,334,11.0,-999.0,56,-99.99,,,-99.99,325.0,meteohub,2013-11-03 17:47:00,
2013-11-03 12:52:00,79.5,62.4,-100.00,NE,51,7.0,-999.0,56,-99.99,,,-99.99,380.0,meteohub,2013-11-03 17:52:00,
2013-11-03 12:57:00,79.7,62.6,-100.00,NNW,345,9.0,-999.0,56,-99.99,,,-99.99,789.0,meteohub,2013-11-03 17:57:00,
2013-11-03 13:02:00,80.6,63.5,-100.00,NNW,341,9.0,-999.0,56,-99.99,,,-99.99,925.0,meteohub,2013-11-03 18:02:00,
2013-11-03 13:07:00,80.8,63.7,-100.00,North,5,10.0,-999.0,56,-99.99,,,-99.99,302.0,meteohub,2013-11-03 18:07:00,
2013-11-03 13:12:00,80.6,64.0,-100.00,North,9,13.0,-999.0,57,-99.99,,,-99.99,1014.0,meteohub,2013-11-03 18:12:00,
2013-11-03 13:17:00,81.0,64.2,-100.00,North,5,6.0,-999.0,57,-99.99,,,-99.99,884.0,meteohub,2013-11-03 18:17:00,
2013-11-03 13:22:00,81.1,64.4,-100.00,NNE,18,10.0,-999.0,57,-99.99,,,-99.99,557.0,meteohub,2013-11-03 18:22:00,
2013-11-03 13:27:00,81.1,64.0,-100.00,North,355,13.0,-999.0,56,-99.99,,,-99.99,770.0,meteohub,2013-11-03 18:27:00,
2013-11-03 13:32:00,81.1,64.4,-100.00,North,0,6.0,-999.0,57,-99.99,,,-99.99,773.0,meteohub,2013-11-03 18:32:00,
2013-11-03 13:37:00,81.3,64.6,-100.00,NNW,331,11.0,-999.0,57,-99.99,,,-99.99,640.0,meteohub,2013-11-03 18:37:00,
2013-11-03 13:42:00,81.0,63.9,-100.00,North,351,12.0,-999.0,56,-99.99,,,-99.99,691.0,meteohub,2013-11-03 18:42:00,
2013-11-03 13:47:00,81.1,64.0,-100.00,NW,326,8.0,-999.0,56,-99.99,,,-99.99,701.0,meteohub,2013-11-03 18:47:00,
2013-11-03 13:52:00,81.1,64.0,-100.00,NNW,336,11.0,-999.0,56,-99.99,,,-99.99,287.0,meteohub,2013-11-03 18:52:00,
2013-11-03 13:57:00,80.4,63.9,-100.00,NNE,13,9.0,-999.0,57,-99.99,,,-99.99,687.0,meteohub,2013-11-03 18:57:00,
2013-11-03 14:02:00,81.0,64.2,-100.00,NW,315,7.0,-999.0,57,-99.99,,,-99.99,726.0,meteohub,2013-11-03 19:02:00,
2013-11-03 14:07:00,81.0,64.2,-100.00,WNW,292,12.0,-999.0,57,-99.99,,,-99.99,663.0,meteohub,2013-11-03 19:07:00,
2013-11-03 14:12:00,81.0,64.2,-100.00,NNW,331,7.0,-999.0,57,-99.99,,,-99.99,635.0,meteohub,2013-11-03 19:12:00,
2013-11-03 14:17:00,81.1,64.0,-100.00,NE,36,14.0,-999.0,56,-99.99,,,-99.99,322.0,meteohub,2013-11-03 19:17:00,
2013-11-03 14:22:00,81.0,64.2,-100.00,NNW,340,10.0,-999.0,57,-99.99,,,-99.99,276.0,meteohub,2013-11-03 19:22:00,
2013-11-03 14:27:00,80.2,63.7,-100.00,North,10,10.0,-999.0,57,-99.99,,,-99.99,251.0,meteohub,2013-11-03 19:27:00,
2013-11-03 14:32:00,79.9,63.3,-100.00,NNW,337,14.0,-999.0,57,-99.99,,,-99.99,230.0,meteohub,2013-11-03 19:32:00,
2013-11-03 14:37:00,79.5,63.0,-100.00,NNW,335,10.0,-999.0,57,-99.99,,,-99.99,186.0,meteohub,2013-11-03 19:37:00,
2013-11-03 14:42:00,79.3,63.3,-100.00,NNW,346,8.0,-999.0,58,-99.99,,,-99.99,169.0,meteohub,2013-11-03 19:42:00,
2013-11-03 14:47:00,78.8,62.8,-100.00,NNW,343,10.0,-999.0,58,-99.99,,,-99.99,237.0,meteohub,2013-11-03 19:47:00,
2013-11-03 14:52:00,78.6,62.6,-100.00,NNE,31,12.0,-999.0,58,-99.99,,,-99.99,301.0,meteohub,2013-11-03 19:52:00,
2013-11-03 14:57:00,78.8,62.8,-100.00,NW,326,4.0,-999.0,58,-99.99,,,-99.99,250.0,meteohub,2013-11-03 19:57:00,
2013-11-03 15:02:00,79.0,62.4,-100.00,North,349,11.0,-999.0,57,-99.99,,,-99.99,220.0,meteohub,2013-11-03 20:02:00,
2013-11-03 15:07:00,78.6,62.6,-100.00,NNE,15,17.0,-999.0,58,-99.99,,,-99.99,197.0,meteohub,2013-11-03 20:07:00,
2013-11-03 15:12:00,78.8,62.2,-100.00,NW,325,6.0,-999.0,57,-99.99,,,-99.99,508.0,meteohub,2013-11-03 20:12:00,
2013-11-03 15:17:00,79.5,63.0,-100.00,NNW,334,8.0,-999.0,57,-99.99,,,-99.99,489.0,meteohub,2013-11-03 20:17:00,
2013-11-03 15:22:00,80.1,63.5,-100.00,NNW,342,10.0,-999.0,57,-99.99,,,-99.99,459.0,meteohub,2013-11-03 20:22:00,
2013-11-03 15:27:00,80.1,63.5,-100.00,NNW,343,10.0,-999.0,57,-99.99,,,-99.99,244.0,meteohub,2013-11-03 20:27:00,
2013-11-03 15:32:00,79.7,62.6,-100.00,NNE,16,16.0,-999.0,56,-99.99,,,-99.99,424.0,meteohub,2013-11-03 20:32:00,
2013-11-03 15:37:00,79.2,62.1,-100.00,North,0,14.0,-999.0,56,-99.99,,,-99.99,446.0,meteohub,2013-11-03 20:37:00,
2013-11-03 15:42:00,79.0,62.4,-100.00,NNW,333,6.0,-999.0,57,-99.99,,,-99.99,139.0,meteohub,2013-11-03 20:42:00,
2013-11-03 15:47:00,78.6,61.5,-100.00,NNW,336,11.0,-999.0,56,-99.99,,,-99.99,120.0,meteohub,2013-11-03 20:47:00,
2013-11-03 15:52:00,78.6,62.1,-100.00,North,5,10.0,-999.0,57,-99.99,,,-99.99,352.0,meteohub,2013-11-03 20:52:00,
2013-11-03 15:57:00,78.6,61.5,-100.00,North,350,5.0,-999.0,56,-99.99,,,-99.99,90.0,meteohub,2013-11-03 20:57:00,
2013-11-03 16:02:00,78.3,61.7,-100.00,NW,323,11.0,-999.0,57,-99.99,,,-99.99,232.0,meteohub,2013-11-03 21:02:00,
2013-11-03 16:07:00,78.3,62.2,-100.00,NNW,340,12.0,-999.0,58,-99.99,,,-99.99,297.0,meteohub,2013-11-03 21:07:00,
2013-11-03 16:12:00,78.6,62.1,-100.00,NNW,339,13.0,-999.0,57,-99.99,,,-99.99,297.0,meteohub,2013-11-03 21:12:00,
2013-11-03 16:17:00,78.6,62.1,-100.00,North,349,10.0,-999.0,57,-99.99,,,-99.99,295.0,meteohub,2013-11-03 21:17:00,
2013-11-03 16:22:00,79.0,62.4,-100.00,NNW,340,11.0,-999.0,57,-99.99,,,-99.99,230.0,meteohub,2013-11-03 21:22:00,
2013-11-03 16:27:00,78.6,62.6,-100.00,North,355,5.0,-999.0,58,-99.99,,,-99.99,121.0,meteohub,2013-11-03 21:27:00,
2013-11-03 16:32:00,78.4,62.4,-100.00,NNW,344,13.0,-999.0,58,-99.99,,,-99.99,98.0,meteohub,2013-11-03 21:32:00,
2013-11-03 16:37:00,78.1,61.5,-100.00,NNE,14,14.0,-999.0,57,-99.99,,,-99.99,90.0,meteohub,2013-11-03 21:37:00,
2013-11-03 16:42:00,77.7,62.2,-100.00,NNW,335,7.0,-999.0,59,-99.99,,,-99.99,62.0,meteohub,2013-11-03 21:42:00,
2013-11-03 16:47:00,77.7,62.2,-100.00,NNW,329,7.0,-999.0,59,-99.99,,,-99.99,56.0,meteohub,2013-11-03 21:47:00,
2013-11-03 16:52:00,77.9,61.9,-100.00,NNW,341,11.0,-999.0,58,-99.99,,,-99.99,53.0,meteohub,2013-11-03 21:52:00,
2013-11-03 16:57:00,78.1,62.1,-100.00,North,355,9.0,-999.0,58,-99.99,,,-99.99,47.0,meteohub,2013-11-03 21:57:00,
2013-11-03 17:02:00,78.1,62.1,-100.00,North,0,7.0,-999.0,58,-99.99,,,-99.99,35.0,meteohub,2013-11-03 22:02:00,
2013-11-03 17:07:00,78.1,62.1,-100.00,NW,308,6.0,-999.0,58,-99.99,,,-99.99,32.0,meteohub,2013-11-03 22:07:00,
2013-11-03 17:12:00,78.1,62.1,-100.00,WNW,298,4.0,-999.0,58,-99.99,,,-99.99,28.0,meteohub,2013-11-03 22:12:00,
2013-11-03 17:17:00,78.1,62.1,-100.00,NW,325,8.0,-999.0,58,-99.99,,,-99.99,19.0,meteohub,2013-11-03 22:17:00,
2013-11-03 17:22:00,78.1,62.1,-100.00,North,350,5.0,-999.0,58,-99.99,,,-99.99,16.0,meteohub,2013-11-03 22:22:00,
2013-11-03 17:27:00,77.7,61.7,-100.00,NNW,330,12.0,-999.0,58,-99.99,,,-99.99,12.0,meteohub,2013-11-03 22:27:00,
2013-11-03 17:32:00,77.7,61.7,-100.00,NNW,338,5.0,-999.0,58,-99.99,,,-99.99,5.0,meteohub,2013-11-03 22:32:00,
2013-11-03 17:37:00,77.5,61.5,-100.00,NE,44,6.0,-999.0,58,-99.99,,,-99.99,0.0,meteohub,2013-11-03 22:37:00,
2013-11-03 17:42:00,77.5,61.2,-100.00,NNW,339,11.0,-999.0,57,-99.99,,,-99.99,0.0,meteohub,2013-11-03 22:42:00,
2013-11-03 17:47:00,77.5,61.2,-100.00,WNW,291,4.0,-999.0,57,-99.99,,,-99.99,0.0,meteohub,2013-11-03 22:47:00,
2013-11-03 17:52:00,77.5,61.2,-100.00,NNW,340,6.0,-999.0,57,-99.99,,,-99.99,0.0,meteohub,2013-11-03 22:52:00,
2013-11-03 17:57:00,77.4,61.0,-100.00,NW,317,5.0,-999.0,57,-99.99,,,-99.99,0.0,meteohub,2013-11-03 22:57:00,
2013-11-03 18:02:00,77.2,60.8,-100.00,West,276,7.0,-999.0,57,-99.99,,,-99.99,0.0,meteohub,2013-11-03 23:02:00,
2013-11-03 18:07:00,77.2,60.3,-100.00,WNW,299,6.0,-999.0,56,-99.99,,,-99.99,0.0,meteohub,2013-11-03 23:07:00,
2013-11-03 18:12:00,77.2,60.8,-100.00,SW,223,5.0,-999.0,57,-99.99,,,-99.99,0.0,meteohub,2013-11-03 23:12:00,
2013-11-03 18:17:00,77.2,60.8,-100.00,NNE,18,5.0,-999.0,57,-99.99,,,-99.99,0.0,meteohub,2013-11-03 23:17:00,
2013-11-03 18:22:00,77.2,60.8,-100.00,North,355,9.0,-999.0,57,-99.99,,,-99.99,0.0,meteohub,2013-11-03 23:22:00,
2013-11-03 18:27:00,77.2,60.8,-100.00,North,0,6.0,-999.0,57,-99.99,,,-99.99,0.0,meteohub,2013-11-03 23:27:00,
2013-11-03 18:32:00,77.2,60.8,-100.00,NNW,342,3.0,-999.0,57,-99.99,,,-99.99,0.0,meteohub,2013-11-03 23:32:00,
2013-11-03 18:37:00,77.2,61.3,-100.00,NW,315,7.0,-999.0,58,-99.99,,,-99.99,0.0,meteohub,2013-11-03 23:37:00,
2013-11-03 18:42:00,77.2,61.3,-100.00,NW,320,12.0,-999.0,58,-99.99,,,-99.99,0.0,meteohub,2013-11-03 23:42:00,
2013-11-03 18:47:00,77.0,61.2,-100.00,NNW,334,10.0,-999.0,58,-99.99,,,-99.99,0.0,meteohub,2013-11-03 23:47:00,
2013-11-03 18:52:00,77.0,61.2,-100.00,North,355,7.0,-999.0,58,-99.99,,,-99.99,0.0,meteohub,2013-11-03 23:52:00,
2013-11-03 18:57:00,76.8,61.0,-100.00,NW,321,11.0,-999.0,58,-99.99,,,-99.99,0.0,meteohub,2013-11-03 23:57:00,
2013-11-03 19:02:00,76.8,61.0,-100.00,NW,318,7.0,-999.0,58,-99.99,,,-99.99,0.0,meteohub,2013-11-04 00:02:00,
2013-11-03 19:07:00,77.0,60.6,-100.00,NW,325,5.0,-999.0,57,-99.99,,,-99.99,0.0,meteohub,2013-11-04 00:07:00,
2013-11-03 19:12:00,77.0,61.2,-100.00,North,351,7.0,-999.0,58,-99.99,,,-99.99,0.0,meteohub,2013-11-04 00:12:00,
2013-11-03 19:17:00,76.8,61.0,-100.00,East,80,9.0,-999.0,58,-99.99,,,-99.99,0.0,meteohub,2013-11-04 00:17:00,
2013-11-03 19:27:00,76.8,61.0,-100.00,East,88,6.0,-999.0,58,-99.99,,,-99.99,0.0,meteohub,2013-11-04 00:27:00,
2013-11-03 19:32:00,76.8,61.0,-100.00,North,355,10.0,-999.0,58,-99.99,,,-99.99,0.0,meteohub,2013-11-04 00:32:00,
2013-11-03 19:37:00,76.6,60.8,-100.00,NNW,340,4.0,-999.0,58,-99.99,,,-99.99,0.0,meteohub,2013-11-04 00:37:00,
2013-11-03 19:42:00,76.6,60.8,-100.00,NE,42,14.0,-999.0,58,-99.99,,,-99.99,0.0,meteohub,2013-11-04 00:42:00,
2013-11-03 19:47:00,76.6,60.8,-100.00,NW,311,9.0,-999.0,58,-99.99,,,-99.99,0.0,meteohub,2013-11-04 00:47:00,
2013-11-03 19:52:00,76.6,60.8,-100.00,NW,325,9.0,-999.0,58,-99.99,,,-99.99,0.0,meteohub,2013-11-04 00:52:00,
2013-11-03 19:57:00,76.6,60.8,-100.00,WNW,285,10.0,-999.0,58,-99.99,,,-99.99,0.0,meteohub,2013-11-04 00:57:00,
2013-11-03 20:02:00,76.6,60.8,-100.00,North,0,3.0,-999.0,58,-99.99,,,-99.99,0.0,meteohub,2013-11-04 01:02:00,
2013-11-03 20:07:00,76.6,60.3,-100.00,WNW,298,7.0,-999.0,57,-99.99,,,-99.99,0.0,meteohub,2013-11-04 01:07:00,
2013-11-03 20:12:00,76.5,60.1,-100.00,NW,319,6.0,-999.0,57,-99.99,,,-99.99,0.0,meteohub,2013-11-04 01:12:00,
2013-11-03 20:17:00,76.5,60.6,-100.00,SW,234,6.0,-999.0,58,-99.99,,,-99.99,0.0,meteohub,2013-11-04 01:17:00,
2013-11-03 20:22:00,76.5,60.6,-100.00,NW,323,13.0,-999.0,58,-99.99,,,-99.99,0.0,meteohub,2013-11-04 01:22:00,
2013-11-03 20:27:00,76.5,60.6,-100.00,NNE,30,9.0,-999.0,58,-99.99,,,-99.99,0.0,meteohub,2013-11-04 01:27:00,
2013-11-03 20:32:00,76.5,60.1,-100.00,NNW,327,5.0,-999.0,57,-99.99,,,-99.99,0.0,meteohub,2013-11-04 01:32:00,
2013-11-03 20:37:00,76.5,60.1,-100.00,NW,318,8.0,-999.0,57,-99.99,,,-99.99,0.0,meteohub,2013-11-04 01:37:00,
2013-11-03 20:42:00,76.5,58.6,-100.00,WNW,301,11.0,-999.0,54,-99.99,,,-99.99,0.0,meteohub,2013-11-04 01:42:00,
2013-11-03 20:47:00,76.5,59.2,-100.00,East,84,10.0,-999.0,55,-99.99,,,-99.99,0.0,meteohub,2013-11-04 01:47:00,
2013-11-03 20:52:00,76.5,59.2,-100.00,NW,321,7.0,-999.0,55,-99.99,,,-99.99,0.0,meteohub,2013-11-04 01:52:00,
2013-11-03 20:57:00,76.6,59.7,-100.00,WNW,299,10.0,-999.0,56,-99.99,,,-99.99,0.0,meteohub,2013-11-04 01:57:00,
2013-11-03 21:02:00,76.6,60.3,-100.00,ESE,104,4.0,-999.0,57,-99.99,,,-99.99,0.0,meteohub,2013-11-04 02:02:00,
2013-11-03 21:07:00,76.6,59.2,-100.00,NE,34,13.0,-999.0,55,-99.99,,,-99.99,0.0,meteohub,2013-11-04 02:07:00,
2013-11-03 21:12:00,76.6,59.7,-100.00,WNW,302,5.0,-999.0,56,-99.99,,,-99.99,0.0,meteohub,2013-11-04 02:12:00,
2013-11-03 21:17:00,76.6,58.3,-100.00,NNW,340,8.0,-999.0,53,-99.99,,,-99.99,0.0,meteohub,2013-11-04 02:17:00,
2013-11-03 21:22:00,76.6,58.8,-100.00,West,281,6.0,-999.0,54,-99.99,,,-99.99,0.0,meteohub,2013-11-04 02:22:00,
2013-11-03 21:27:00,76.6,60.3,-100.00,NNW,335,9.0,-999.0,57,-99.99,,,-99.99,0.0,meteohub,2013-11-04 02:27:00,
2013-11-03 21:32:00,76.6,59.2,-100.00,North,0,6.0,-999.0,55,-99.99,,,-99.99,0.0,meteohub,2013-11-04 02:32:00,
2013-11-03 21:37:00,76.6,59.7,-100.00,WNW,296,9.0,-999.0,56,-99.99,,,-99.99,0.0,meteohub,2013-11-04 02:37:00,
2013-11-03 21:42:00,76.6,60.3,-100.00,WNW,283,5.0,-999.0,57,-99.99,,,-99.99,0.0,meteohub,2013-11-04 02:42:00,
2013-11-03 21:47:00,76.6,60.3,-100.00,NNE,24,6.0,-999.0,57,-99.99,,,-99.99,0.0,meteohub,2013-11-04 02:47:00,
2013-11-03 21:52:00,76.6,60.3,-100.00,NW,306,13.0,-999.0,57,-99.99,,,-99.99,0.0,meteohub,2013-11-04 02:52:00,
2013-11-03 21:57:00,76.6,60.3,-100.00,SSE,159,9.0,-999.0,57,-99.99,,,-99.99,0.0,meteohub,2013-11-04 02:57:00,
2013-11-03 22:02:00,76.6,59.7,-100.00,West,263,6.0,-999.0,56,-99.99,,,-99.99,0.0,meteohub,2013-11-04 03:02:00,
2013-11-03 22:07:00,76.6,60.3,-100.00,ENE,78,9.0,-999.0,57,-99.99,,,-99.99,0.0,meteohub,2013-11-04 03:07:00,
2013-11-03 22:12:00,76.5,60.1,-100.00,NW,304,9.0,-999.0,57,-99.99,,,-99.99,0.0,meteohub,2013-11-04 03:12:00,
2013-11-03 22:17:00,76.5,60.1,-100.00,NNW,333,7.0,-999.0,57,-99.99,,,-99.99,0.0,meteohub,2013-11-04 03:17:00,
2013-11-03 22:22:00,76.5,60.1,-100.00,NW,312,4.0,-999.0,57,-99.99,,,-99.99,0.0,meteohub,2013-11-04 03:22:00,
2013-11-03 22:27:00,76.5,60.1,-100.00,WNW,295,7.0,-999.0,57,-99.99,,,-99.99,0.0,meteohub,2013-11-04 03:27:00,
2013-11-03 22:32:00,76.3,59.9,-100.00,WNW,299,11.0,-999.0,57,-99.99,,,-99.99,0.0,meteohub,2013-11-04 03:32:00,
2013-11-03 22:37:00,76.3,60.4,-100.00,SSE,162,7.0,-999.0,58,-99.99,,,-99.99,0.0,meteohub,2013-11-04 03:37:00,
2013-11-03 22:42:00,76.3,59.9,-100.00,NNW,327,8.0,-999.0,57,-99.99,,,-99.99,0.0,meteohub,2013-11-04 03:42:00,
2013-11-03 22:47:00,76.3,59.9,-100.00,NNW,342,7.0,-999.0,57,-99.99,,,-99.99,0.0,meteohub,2013-11-04 03:47:00,
2013-11-03 22:52:00,76.3,59.9,-100.00,WNW,287,6.0,-999.0,57,-99.99,,,-99.99,0.0,meteohub,2013-11-04 03:52:00,
2013-11-03 22:57:00,76.3,59.9,-100.00,East,80,12.0,-999.0,57,-99.99,,,-99.99,0.0,meteohub,2013-11-04 03:57:00,
2013-11-03 23:02:00,76.3,59.9,-100.00,NW,322,5.0,-999.0,57,-99.99,,,-99.99,0.0,meteohub,2013-11-04 04:02:00,
2013-11-03 23:07:00,76.1,59.7,-100.00,East,90,3.0,-999.0,57,-99.99,,,-99.99,0.0,meteohub,2013-11-04 04:07:00,
2013-11-03 23:12:00,76.1,59.7,-100.00,WSW,250,6.0,-999.0,57,-99.99,,,-99.99,0.0,meteohub,2013-11-04 04:12:00,
2013-11-03 23:17:00,76.1,59.7,-100.00,WNW,301,6.0,-999.0,57,-99.99,,,-99.99,0.0,meteohub,2013-11-04 04:17:00,
2013-11-03 23:22:00,76.1,60.3,-100.00,NNW,346,9.0,-999.0,58,-99.99,,,-99.99,0.0,meteohub,2013-11-04 04:22:00,
2013-11-03 23:27:00,76.1,60.3,-100.00,NW,326,5.0,-999.0,58,-99.99,,,-99.99,0.0,meteohub,2013-11-04 04:27:00,
2013-11-03 23:32:00,76.1,60.3,-100.00,NW,326,8.0,-999.0,58,-99.99,,,-99.99,0.0,meteohub,2013-11-04 04:32:00,
2013-11-03 23:37:00,76.3,60.4,-100.00,West,274,7.0,-999.0,58,-99.99,,,-99.99,0.0,meteohub,2013-11-04 04:37:00,
2013-11-03 23:42:00,76.1,60.3,-100.00,NW,319,9.0,-999.0,58,-99.99,,,-99.99,0.0,meteohub,2013-11-04 04:42:00,
2013-11-03 23:47:00,76.1,59.7,-100.00,WNW,303,9.0,-999.0,57,-99.99,,,-99.99,0.0,meteohub,2013-11-04 04:47:00,
2013-11-03 23:52:00,75.9,60.1,-100.00,East,100,11.0,-999.0,58,-99.99,,,-99.99,0.0,meteohub,2013-11-04 04:52:00,
2013-11-03 23:57:00,75.9,59.5,-100.00,NW,311,3.0,-999.0,57,-99.99,,,-99.99,0.0,meteohub,2013-11-04 04:57:00,